GEO-KOMPSAT-2A

Last updated on Aug. 10, 2020, 5:33 a.m. UTC

1 43823U 18100A   20222.86299197 -.00000346  00000-0  00000+0 0  9992
2 43823   0.0267 229.5055 0002247 251.2692 276.9487  1.00273075  6236
UTC
Height (km)
Latitude
Longitude
Inclination
Orbital Period
UTC large
Height (km)
Speed (km/s)
/
Latitude / Longitude
Inclination (degrees)
Orbital Period (minutes)
Azimuth
Elevation
Range (km)
Doppler Factor
iOS Compass Heading
iOS Angle

Next 30 passes for location: Hong Kong

Rise time Rise Azimuth (degrees) Set time Set Azimuth (degrees) Duration Max altitude (degrees)

No matching passes for this satellites